Vorticity
32 32 32 31 31 32 32 32 33 33 32 31 31 32 34 36 38 39 40 41 40 39 37 36 35 34 32 30 28 25 24 23 24 24 25 25 24 24 23 23 22 22 21 20 18 17 15 15 14 14 13 13 12 11 11 11 11 11 10 10 10 10 10 10 10 10 10 10 10 10 10 10 10 10 9 9 9 9 9 7 6 5 5 6 7 7
32 33 33 32 33 34 34 33 33 34 34 34 33 32 34 35 36 37 39 41 42 41 41 39 38 37 36 35 33 31 29 28 28 28 28 28 27 27 26 27 27 27 27 26 25 23 21 19 18 17 16 16 15 13 13 12 12 12 12 12 12 12 11 11 11 11 11 11 11 11 11 11 11 10 10 10 10 10 10 8 7 6 6 6 7 7
32 33 32 33 33 33 33 32 32 31 32 33 32 31 30 31 32 32 32 34 36 37 38 38 38 38 37 36 35 33 32 31 30 31 31 31 30 29 28 28 29 29 30 30 30 29 27 25 23 21 21 20 19 17 16 15 15 14 14 14 13 13 13 13 13 13 13 12 12 12 12 12 12 11 11 11 11 11 10 10 9 8 7 7 7 7
33 33 32 31 30 29 29 29 27 26 25 25 24 23 22 23 24 24 24 25 27 28 30 32 34 36 36 36 35 35 34 33 32 32 33 33 33 32 31 30 29 30 30 31 32 32 31 29 27 25 24 24 23 22 20 19 18 17 17 16 16 15 15 14 14 14 14 14 14 13 13 13 13 13 12 12 12 11 11 10 10 9 9 8 8 8
31 29 28 26 25 23 22 21 19 17 16 15 15 15 16 17 18 18 18 19 21 22 24 25 27 30 32 33 33 34 34 33 33 33 34 35 35 34 33 31 30 30 30 30 32 32 33 32 30 28 27 26 25 25 24 22 21 20 20 19 19 18 17 16 16 16 16 15 15 15 14 14 14 14 14 13 13 13 12 11 11 10 10 10 9 9
24 23 21 20 18 16 15 13 12 11 11 11 12 13 14 14 14 15 16 17 18 20 20 21 22 22 24 25 26 28 30 31 31 32 33 34 34 35 34 33 32 30 29 29 30 31 32 33 32 31 29 27 27 26 26 25 24 22 22 21 21 20 19 18 18 17 17 16 16 16 15 15 15 15 15 14 14 14 13 13 12 12 12 11 11 10
18 16 15 13 11 10 9 9 9 10 12 13 13 13 12 11 11 12 14 16 17 18 19 19 18 18 17 17 19 21 24 26 27 28 29 30 31 32 33 33 32 31 30 29 29 29 30 31 32 32 31 29 28 27 26 26 25 24 23 22 22 22 21 20 20 19 18 17 17 16 16 16 15 15 15 15 15 15 14 14 14 13 13 12 12 11
13 11 9 8 7 7 8 10 11 13 14 14 13 11 8 7 8 9 11 13 15 16 17 17 16 16 15 15 16 17 19 21 23 24 24 25 26 27 28 29 29 29 29 28 28 28 28 29 30 31 32 31 30 28 27 26 26 25 24 23 23 22 22 22 21 20 19 18 18 17 17 16 15 15 15 15 15 15 15 14 14 14 13 13 12 12
9 8 7 7 8 10 12 14 15 16 15 13 11 9 9 10 11 10 10 10 10 11 12 13 13 13 13 12 13 13 15 17 19 20 20 20 20 20 21 23 24 25 25 26 26 26 26 26 27 28 30 31 31 30 28 27 26 25 25 24 23 22 22 22 21 21 20 19 18 18 17 16 15 15 14 14 14 14 14 14 14 14 14 13 13 12
6 7 8 9 12 15 18 19 18 16 13 10 10 12 17 20 19 16 12 9 8 8 8 10 11 12 12 12 12 12 12 13 14 15 16 16 16 16 16 17 19 20 21 22 23 23 24 24 24 25 27 28 30 30 30 28 27 26 25 24 23 23 22 21 21 21 20 20 19 18 17 17 16 15 15 14 14 14 14 14 14 14 14 14 13 13
7 9 12 15 18 20 21 20 17 13 10 8 10 14 20 22 21 18 14 11 11 12 13 14 14 15 16 16 16 16 15 15 14 14 14 14 14 14 14 15 16 16 17 19 20 20 21 21 22 22 23 25 27 28 29 29 28 27 26 25 24 23 22 20 20 19 19 19 19 18 18 17 16 16 15 15 14 14 14 14 14 14 14 13 13 13
12 15 18 21 22 22 20 17 13 9 6 6 10 14 18 18 17 15 14 14 15 16 17 18 18 17 17 17 17 17 17 16 16 15 15 15 15 15 15 15 15 16 16 17 18 19 19 20 20 20 21 22 23 25 27 28 28 27 26 25 24 23 21 20 19 18 17 17 17 17 17 17 16 16 16 15 15 14 14 14 14 14 14 13 13 13
19 22 23 23 21 19 16 12 9 6 5 8 12 16 17 16 14 13 14 16 18 20 20 20 21 21 20 19 18 18 17 17 17 17 17 17 18 18 17 17 17 17 18 18 19 19 19 20 20 20 20 20 20 22 24 25 26 27 26 25 24 22 21 20 18 17 16 15 15 15 15 15 15 15 15 14 14 14 14 14 14 14 14 14 13 13
24 23 22 19 17 14 11 9 8 8 11 15 18 18 17 15 14 14 15 16 17 17 17 18 20 21 22 22 21 21 20 19 19 19 19 19 19 19 19 18 18 19 19 19 20 20 20 20 20 20 20 19 19 20 21 22 24 25 26 25 24 23 21 20 18 17 16 15 14 13 13 13 13 13 13 13 13 13 13 14 14 14 14 14 14 14
22 19 16 14 12 10 9 10 13 16 20 21 20 17 14 13 13 13 13 13 13 13 13 15 16 17 17 19 20 21 21 21 21 21 21 20 20 19 18 18 18 18 18 19 20 20 20 20 20 20 19 19 18 18 19 20 22 23 24 24 24 23 22 20 19 17 16 15 15 14 13 12 11 10 10 11 12 12 13 13 13 14 14 14 14 15
16 13 11 10 10 12 14 18 21 23 23 20 16 13 11 11 11 11 12 12 12 12 12 13 13 13 13 13 15 16 18 19 20 20 21 21 20 20 18 18 18 18 18 18 18 19 19 19 20 19 19 18 18 18 18 19 20 21 22 23 23 23 22 21 19 18 17 16 15 14 14 13 12 10 10 10 10 11 12 13 13 14 14 14 15 16
10 9 9 10 14 17 21 22 22 20 16 13 10 9 9 10 10 11 12 12 13 12 12 12 12 12 12 12 12 13 14 15 16 17 18 18 19 19 19 18 18 18 18 18 18 18 18 19 19 19 18 18 18 18 18 18 18 19 20 21 22 22 22 21 20 18 18 17 16 15 15 14 13 12 11 11 11 12 13 14 14 15 15 15 16 17
6 6 9 13 16 19 20 18 15 12 9 7 7 7 8 10 11 12 12 13 13 13 12 11 11 11 12 12 12 12 13 13 14 15 15 15 16 18 19 18 18 19 19 19 19 19 19 19 19 19 18 18 18 18 18 18 18 18 19 20 21 21 21 20 19 19 18 17 17 16 16 16 15 15 14 14 15 15 16 17 17 17 17 17 18 18
6 8 12 16 18 17 15 11 8 5 4 5 6 7 9 10 11 12 13 13 13 13 13 12 12 11 11 12 13 13 13 13 13 14 14 14 15 16 18 18 19 19 20 20 20 20 19 19 19 19 19 19 18 18 18 18 18 18 18 19 19 20 20 19 19 18 18 18 18 18 18 18 18 18 18 19 20 20 21 20 20 19 19 18 18 18
8 11 15 17 17 15 10 6 3 2 3 5 7 9 10 11 12 12 13 13 14 13 13 12 12 12 12 13 13 14 13 13 13 13 13 14 14 15 16 17 18 19 20 20 21 21 20 20 20 19 19 19 19 19 19 19 18 18 18 18 18 18 18 18 18 18 19 19 19 19 19 19 20 20 22 23 24 24 23 21 20 19 18 17 16 15
6 9 12 14 13 12 8 5 3 4 6 8 10 10 11 11 12 12 13 13 14 14 13 12 11 12 12 12 13 13 13 13 13 13 14 14 14 15 16 17 18 18 19 20 21 21 21 21 20 20 19 19 19 19 19 19 19 18 18 18 18 18 18 18 18 19 19 20 20 19 19 19 20 21 22 23 23 22 19 17 16 16 15 14 13 12
4 6 7 9 9 8 7 7 7 8 10 11 12 12 11 11 11 11 12 13 13 13 13 12 12 13 12 12 12 13 13 12 13 13 14 14 14 15 16 17 18 18 18 20 20 21 21 22 21 21 20 20 19 19 19 19 19 18 18 18 18 18 18 18 19 20 20 20 19 19 18 17 18 18 19 19 17 15 12 11 11 12 12 12 11 10
4 4 5 6 7 8 8 9 10 11 12 12 12 11 10 10 10 11 11 11 12 12 13 13 14 14 13 13 13 13 13 13 13 13 13 13 13 14 16 16 16 17 18 19 20 20 21 21 22 22 22 21 20 20 19 19 19 18 18 18 18 18 18 19 20 20 20 19 18 17 16 15 15 14 14 13 11 9 7 8 8 10 10 10 10 10
4 4 5 6 7 8 9 10 11 12 12 12 11 10 10 9 9 9 10 10 10 11 12 13 13 14 14 14 14 14 14 14 14 13 12 12 13 14 15 15 15 15 16 17 18 19 20 20 21 22 22 22 21 21 20 20 19 19 19 19 19 19 20 21 22 21 18 16 14 14 14 13 12 12 10 9 7 6 6 7 8 9 9 10 10 10
4 5 6 7 8 9 10 11 12 12 12 12 11 10 10 9 9 9 9 9 10 10 11 12 12 13 13 14 14 14 13 14 14 13 13 13 13 14 14 14 14 14 15 16 16 17 18 19 20 21 22 22 22 22 21 21 20 20 19 19 19 20 21 23 22 20 15 12 10 10 12 12 12 10 9 7 6 5 5 6 7 8 8 9 10 10
6 6 7 9 10 11 12 13 13 13 13 12 11 10 10 10 10 10 10 10 10 10 11 11 11 11 12 12 12 12 13 13 13 13 13 13 14 14 14 14 14 14 14 15 16 16 17 18 19 19 20 21 22 22 22 22 22 21 21 20 21 21 23 24 22 18 11 8 8 9 11 12 11 10 8 6 5 5 5 5 6 6 7 8 8 9
7 8 9 11 12 13 14 14 14 14 13 12 11 10 10 10 10 10 10 10 10 10 10 10 10 10 11 11 11 11 11 11 11 11 12 13 13 13 13 14 14 14 14 15 15 16 16 17 18 18 19 20 21 22 23 23 23 22 22 22 22 23 24 25 21 15 8 6 7 10 12 12 11 9 7 6 5 4 4 4 4 4 5 6 6 7
8 9 10 12 13 14 14 14 14 14 13 13 12 11 11 11 11 11 10 10 10 10 10 10 10 10 10 10 10 10 10 10 10 11 12 11 11 11 13 13 13 13 13 14 14 15 16 16 17 17 18 18 19 20 22 23 23 24 23 23 23 24 25 25 20 13 5 4 6 10 12 12 10 8 6 6 5 4 4 4 4 4 5 6 7 8
9 10 12 13 13 14 14 14 14 14 13 12 12 11 11 11 11 11 10 10 10 9 9 8 9 9 9 10 10 10 10 10 10 11 11 10 10 10 12 12 12 12 13 13 14 14 15 16 16 16 17 17 18 19 20 21 23 24 24 24 25 25 27 24 18 11 4 3 6 9 11 11 10 8 6 5 5 4 4 4 5 6 6 8 9 11
11 12 13 14 14 14 14 14 13 13 13 12 11 11 11 11 11 11 10 10 9 8 8 8 8 8 9 10 10 10 10 10 11 12 11 10 10 11 12 11 11 12 12 13 13 13 13 15 15 16 16 16 17 17 18 20 21 23 24 25 26 27 27 24 18 11 4 3 5 7 9 10 9 7 6 5 5 4 5 5 6 8 9 11 13 14
12 13 14 15 15 14 14 13 13 12 12 11 11 11 11 10 10 10 10 9 9 8 8 8 8 9 10 10 11 11 11 12 12 12 12 11 12 12 13 12 12 12 11 12 12 12 13 14 15 15 15 15 16 16 17 18 20 22 24 25 27 28 28 24 18 12 6 4 5 6 7 8 8 7 6 6 6 6 7 8 10 11 13 15 16 17
12 13 14 15 15 14 14 13 13 12 11 11 10 10 10 10 10 9 9 9 8 8 8 8 9 10 10 11 11 12 13 13 14 13 13 13 13 13 13 13 13 12 12 11 10 11 12 13 14 15 15 15 15 15 15 16 18 20 22 24 27 28 28 25 20 14 9 6 6 6 6 7 7 7 7 8 8 10 11 13 15 17 18 20 20 19
13 13 14 14 15 14 14 13 13 12 11 10 10 10 9 9 9 9 8 8 8 8 8 8 9 10 11 12 12 12 13 13 14 14 14 14 14 15 15 14 13 13 13 11 10 10 10 11 13 14 15 15 15 15 14 15 16 17 20 22 25 27 27 26 22 17 12 9 8 7 7 7 7 7 8 9 11 13 16 18 21 22 24 24 23 20
13 13 14 14 14 14 14 13 13 12 11 10 10 9 9 9 8 8 8 8 7 7 7 8 9 10 12 12 12 12 12 12 13 13 14 14 14 15 15 15 15 14 14 13 12 11 10 10 11 12 13 14 15 15 14 14 14 15 17 19 22 24 26 25 23 19 15 12 10 8 8 7 7 7 8 9 11 14 17 20 22 25 26 27 24 21
13 13 13 13 13 13 13 13 12 12 11 10 10 10 9 9 9 8 8 8 7 7 7 7 9 10 11 12 12 11 11 11 11 12 12 13 13 14 15 15 15 15 15 14 13 13 11 10 10 11 12 13 15 15 15 14 14 14 14 16 18 21 23 24 23 21 18 14 12 10 9 8 8 8 8 9 11 13 15 17 20 22 24 26 25 22
12 12 12 12 12 12 12 12 12 12 11 11 10 10 10 9 9 8 8 8 7 7 7 7 8 9 10 11 11 11 10 10 10 10 10 11 12 13 13 14 14 15 15 15 14 13 12 11 11 10 10 11 13 15 16 15 15 14 14 14 15 17 19 21 22 22 20 18 15 13 11 10 9 9 9 10 11 12 12 13 14 16 19 21 23 23
11 11 11 11 11 11 11 11 11 11 11 11 11 10 10 9 9 8 8 8 7 7 7 7 8 9 10 10 11 10 10 9 9 9 9 9 10 10 11 12 13 13 13 14 14 14 13 13 12 10 9 9 11 13 15 16 16 16 15 15 15 15 16 18 19 20 21 20 19 17 16 14 13 13 12 12 12 11 10 9 9 10 12 15 18 20
11 11 10 11 11 11 11 11 11 11 11 11 11 10 10 10 9 8 8 8 8 7 7 7 8 8 9 10 11 11 10 10 10 9 8 8 8 9 9 10 10 11 11 12 13 13 14 13 13 12 10 9 9 10 11 13 15 16 17 16 16 16 16 16 16 17 19 19 20 20 19 19 18 17 16 16 14 13 11 9 7 7 7 10 13 15
10 10 10 10 10 11 11 11 11 11 11 11 11 10 10 10 9 9 8 8 8 7 7 7 7 8 8 10 10 11 11 11 10 10 9 9 8 8 8 9 9 10 10 10 11 11 12 12 13 13 12 11 9 8 8 9 11 13 16 16 17 17 17 17 16 16 17 17 17 18 19 19 19 19 18 18 17 15 13 11 9 8 7 8 10 12
10 10 10 10 10 10 10 11 11 12 12 11 11 11 10 10 10 9 9 8 8 8 7 7 7 7 8 9 10 11 12 12 11 11 10 10 9 9 9 9 9 9 9 9 9 10 10 11 11 12 12 12 11 10 9 8 8 9 11 13 15 17 17 18 18 18 17 17 17 16 16 17 17 18 18 18 17 17 16 14 13 11 10 10 10 11
10 10 9 9 9 9 10 10 11 12 12 12 12 12 11 11 10 10 9 9 8 8 8 8 7 7 7 8 9 10 11 11 11 11 11 10 10 9 9 9 8 8 8 8 8 8 9 9 10 10 11 11 11 11 10 8 7 7 7 8 10 12 15 16 17 18 19 18 18 17 16 16 16 16 16 16 16 16 16 15 15 14 13 13 12 12
11 11 10 10 10 9 9 10 10 11 12 12 13 13 12 11 10 10 9 9 9 8 8 8 8 8 8 8 8 8 9 10 10 10 10 10 9 9 8 8 8 8 8 8 8 8 8 8 8 9 9 10 11 11 11 10 9 8 6 5 6 7 9 10 12 15 16 18 18 18 18 17 17 16 16 16 16 15 15 15 15 15 15 14 14 14
12 12 12 11 11 10 10 10 10 10 11 12 13 13 13 12 11 10 10 9 9 8 8 7 7 8 8 8 8 8 8 8 8 9 9 9 8 8 8 7 7 7 7 7 7 7 7 7 7 8 8 9 9 10 11 11 10 9 8 6 6 5 4 5 7 9 10 13 15 16 17 17 17 17 17 17 16 16 16 16 16 16 15 15 15 15
13 13 13 13 12 12 12 11 11 11 11 11 12 13 13 13 12 11 11 10 9 9 8 8 8 7 8 8 8 8 8 8 7 8 8 8 8 7 7 7 7 6 6 6 7 7 7 8 8 8 8 9 9 9 10 11 11 11 10 9 7 6 4 5 6 6 6 8 9 11 13 15 16 16 17 17 17 17 17 17 17 16 16 16 16 16
12 13 13 13 13 13 13 12 12 11 11 11 11 12 12 13 12 12 11 11 10 9 9 8 8 8 8 8 8 8 8 8 7 7 7 7 7 7 7 7 7 7 7 7 8 8 9 9 10 10 10 11 11 11 11 11 12 12 12 11 10 8 7 6 6 5 5 6 6 7 9 10 12 13 14 15 16 16 17 17 17 17 17 17 17 17
10 11 11 11 12 12 12 12 12 12 12 11 11 11 12 12 12 12 12 11 11 10 10 9 9 8 8 8 8 8 8 7 7 7 7 7 7 7 6 6 7 7 7 8 9 10 11 12 13 13 14 14 14 14 14 13 13 13 13 12 12 11 10 9 8 7 6 6 6 6 6 7 8 9 10 12 13 14 15 16 16 17 17 17 18 18
10 10 10 10 10 10 11 11 12 13 13 12 11 11 11 11 12 12 13 12 11 11 11 10 9 9 8 8 8 8 8 8 7 7 7 6 6 7 7 7 7 7 8 9 10 11 12 13 15 15 16 17 17 17 17 16 16 15 15 14 13 13 12 11 10 9 8 8 7 7 7 6 6 6 7 8 9 10 12 12 13 14 15 16 17 17
14 13 12 11 10 10 10 10 11 12 13 13 12 11 11 11 11 12 12 12 12 12 12 11 10 10 9 8 8 8 8 8 7 7 7 6 6 6 6 7 7 8 8 9 10 11 12 14 15 17 18 19 19 19 19 18 18 17 17 16 15 14 13 12 12 11 10 10 9 9 8 8 7 7 7 7 7 7 8 9 10 10 11 12 13 14
22 20 18 16 14 13 12 11 11 12 13 13 13 12 11 11 10 10 11 12 12 12 12 12 11 10 10 9 8 8 8 7 7 7 6 6 6 6 6 7 8 8 9 9 10 11 13 15 17 18 20 20 21 21 20 20 19 18 18 18 17 16 15 14 13 12 11 11 11 10 10 9 8 8 7 7 7 6 6 7 7 7 8 8 9 10
26 26 25 23 21 18 16 15 14 13 13 13 14 13 12 11 10 10 10 11 12 12 12 12 12 11 10 10 10 9 8 8 8 7 7 6 6 6 7 8 8 9 9 10 10 12 14 16 18 20 21 22 22 22 21 21 20 19 19 19 18 18 17 17 15 14 13 12 12 12 11 11 10 10 9 8 8 7 7 7 6 6 6 6 7 7
24 25 25 25 24 23 20 19 17 16 15 15 15 14 13 12 11 10 10 10 11 12 12 12 12 11 11 11 10 9 9 8 8 7 7 7 7 7 8 9 9 10 10 11 12 14 15 17 19 20 22 22 22 22 22 22 21 20 19 19 19 19 19 18 17 16 15 14 13 13 12 12 12 12 11 10 10 10 9 8 8 7 7 7 7 7
Height
5484 5481 5478 5476 5476 5475 5473 5471 5470 5469 5469 5466 5464 5462 5463 5463 5463 5462 5463 5464 5465 5465 5464 5463 5463 5463 5464 5464 5464 5463 5463 5461 5461 5461 5461 5462 5464 5465 5466 5467 5468 5470 5472 5474 5476 5479 5481 5483 5485 5487 5489 5491 5493 5495 5497 5498 5501 5502 5504 5506 5508 5511 5513 5515 5516 5518 5520 5522 5525 5527 5529 5531 5532 5533 5535 5537 5539 5541 5543 5544 5545 5546 5548 5549 5550 5551
5475 5473 5471 5469 5467 5467 5466 5464 5462 5461 5461 5460 5458 5456 5456 5457 5456 5455 5454 5455 5456 5456 5455 5454 5454 5455 5455 5455 5455 5455 5455 5454 5452 5452 5452 5454 5455 5456 5457 5458 5459 5460 5461 5463 5466 5468 5471 5473 5475 5477 5479 5481 5484 5486 5488 5490 5491 5493 5496 5498 5500 5502 5504 5506 5508 5510 5512 5514 5516 5519 5521 5523 5524 5526 5527 5528 5530 5532 5535 5538 5540 5541 5541 5542 5544 5545
5468 5466 5464 5462 5461 5460 5460 5458 5456 5455 5455 5454 5452 5451 5451 5451 5450 5449 5448 5448 5448 5448 5447 5446 5446 5446 5447 5447 5447 5447 5447 5446 5445 5444 5445 5446 5446 5447 5448 5449 5450 5451 5451 5453 5455 5458 5461 5463 5466 5468 5470 5472 5474 5476 5479 5481 5483 5485 5487 5489 5491 5494 5496 5498 5500 5502 5504 5506 5509 5511 5513 5515 5516 5518 5519 5521 5523 5525 5527 5529 5532 5534 5536 5536 5537 5539
5461 5460 5458 5456 5455 5454 5454 5453 5451 5450 5450 5449 5447 5446 5446 5445 5445 5444 5442 5442 5442 5441 5441 5440 5440 5440 5439 5439 5440 5440 5440 5439 5438 5437 5438 5438 5439 5440 5441 5441 5442 5442 5443 5444 5446 5448 5451 5453 5456 5458 5461 5463 5465 5467 5469 5471 5474 5476 5478 5481 5483 5485 5488 5490 5492 5494 5496 5498 5501 5503 5505 5507 5509 5510 5512 5514 5516 5517 5519 5521 5524 5526 5528 5529 5531 5532
5456 5454 5452 5451 5450 5449 5449 5448 5447 5446 5445 5444 5443 5442 5441 5441 5440 5439 5438 5437 5436 5436 5435 5434 5434 5433 5433 5433 5433 5433 5433 5433 5432 5432 5431 5432 5432 5432 5433 5434 5434 5435 5436 5436 5438 5439 5441 5444 5446 5449 5452 5454 5456 5458 5461 5463 5465 5467 5470 5472 5475 5477 5480 5482 5484 5486 5488 5491 5493 5495 5497 5499 5501 5503 5504 5506 5508 5510 5512 5514 5516 5518 5520 5522 5524 5526
5450 5449 5447 5446 5445 5445 5444 5444 5443 5442 5440 5439 5438 5438 5437 5436 5436 5434 5433 5432 5431 5431 5430 5429 5428 5428 5428 5427 5427 5427 5427 5427 5426 5426 5426 5426 5426 5426 5426 5426 5427 5428 5429 5429 5431 5432 5434 5436 5438 5441 5443 5446 5448 5450 5452 5454 5457 5459 5461 5464 5466 5469 5471 5474 5476 5478 5481 5483 5485 5487 5490 5491 5494 5495 5497 5499 5501 5503 5505 5507 5509 5511 5513 5515 5517 5519
5445 5444 5443 5442 5441 5440 5440 5440 5439 5437 5436 5435 5434 5434 5433 5432 5431 5430 5429 5428 5427 5426 5425 5424 5424 5423 5423 5423 5422 5422 5421 5421 5421 5421 5421 5420 5420 5420 5420 5420 5421 5421 5422 5423 5424 5425 5426 5428 5430 5432 5435 5437 5440 5442 5444 5446 5449 5451 5453 5456 5459 5461 5464 5466 5468 5471 5473 5475 5477 5480 5482 5484 5486 5488 5490 5492 5494 5496 5498 5500 5502 5504 5506 5508 5510 5512
5440 5439 5439 5438 5436 5436 5435 5435 5434 5433 5431 5431 5430 5429 5429 5428 5427 5426 5425 5424 5423 5422 5421 5420 5420 5419 5419 5418 5417 5417 5416 5416 5416 5416 5416 5415 5415 5415 5414 5414 5415 5415 5416 5416 5418 5419 5420 5422 5423 5425 5427 5430 5432 5434 5436 5439 5441 5443 5446 5448 5451 5454 5456 5459 5461 5463 5466 5468 5471 5473 5475 5477 5479 5481 5483 5485 5487 5489 5491 5493 5495 5497 5500 5502 5504 5506
5435 5434 5434 5434 5432 5431 5430 5430 5430 5429 5427 5426 5426 5425 5425 5424 5423 5422 5421 5420 5419 5418 5418 5417 5416 5416 5415 5414 5413 5413 5412 5412 5411 5411 5411 5410 5410 5410 5409 5409 5409 5410 5410 5411 5412 5413 5414 5416 5417 5419 5421 5422 5425 5427 5429 5431 5434 5436 5438 5441 5444 5446 5449 5452 5454 5456 5458 5461 5464 5466 5468 5470 5472 5474 5476 5478 5480 5482 5484 5486 5489 5491 5493 5495 5497 5499
5431 5430 5429 5429 5428 5427 5426 5425 5425 5425 5423 5422 5421 5421 5421 5419 5418 5417 5416 5416 5415 5415 5414 5413 5412 5412 5411 5411 5410 5409 5408 5407 5407 5406 5406 5406 5405 5405 5405 5404 5404 5405 5405 5406 5406 5408 5409 5410 5411 5413 5415 5416 5418 5420 5422 5425 5427 5429 5431 5434 5436 5439 5442 5445 5447 5449 5452 5454 5456 5459 5461 5463 5466 5468 5470 5472 5474 5476 5478 5480 5482 5484 5486 5489 5491 5493
5426 5426 5425 5424 5423 5423 5422 5421 5421 5421 5420 5418 5417 5417 5416 5416 5414 5412 5411 5411 5411 5411 5409 5408 5408 5408 5407 5406 5406 5405 5404 5403 5403 5402 5402 5401 5401 5400 5400 5400 5400 5400 5401 5401 5402 5403 5404 5405 5406 5407 5409 5411 5412 5414 5416 5418 5420 5422 5425 5427 5429 5432 5435 5438 5441 5443 5445 5447 5450 5452 5455 5456 5459 5461 5463 5465 5467 5469 5472 5474 5476 5478 5480 5482 5484 5486
5421 5421 5420 5420 5419 5419 5418 5418 5417 5417 5416 5415 5414 5413 5412 5412 5411 5409 5408 5408 5407 5406 5405 5404 5404 5403 5403 5402 5401 5401 5401 5400 5399 5398 5398 5397 5396 5396 5396 5396 5396 5396 5396 5396 5397 5398 5399 5400 5401 5402 5404 5405 5407 5408 5410 5412 5414 5416 5418 5420 5422 5425 5428 5431 5434 5436 5439 5441 5444 5446 5448 5450 5452 5454 5456 5458 5461 5463 5465 5467 5469 5471 5474 5476 5478 5480
5417 5417 5416 5415 5415 5415 5414 5414 5413 5413 5412 5411 5410 5408 5408 5407 5407 5406 5405 5404 5403 5403 5401 5400 5400 5399 5399 5398 5397 5396 5396 5396 5395 5394 5394 5393 5393 5392 5392 5391 5391 5391 5392 5392 5393 5394 5394 5395 5396 5397 5399 5400 5401 5403 5405 5406 5408 5410 5412 5414 5416 5419 5421 5424 5426 5430 5432 5435 5437 5440 5442 5444 5446 5448 5450 5452 5454 5456 5458 5461 5463 5465 5467 5470 5472 5474
5413 5412 5412 5411 5411 5411 5411 5410 5409 5408 5408 5407 5406 5405 5404 5404 5403 5402 5401 5400 5400 5399 5398 5396 5396 5396 5395 5394 5393 5392 5391 5391 5391 5391 5390 5390 5389 5389 5388 5388 5388 5388 5388 5388 5388 5389 5390 5391 5391 5392 5394 5395 5396 5398 5399 5401 5402 5404 5406 5408 5410 5412 5415 5417 5420 5422 5426 5428 5431 5433 5436 5438 5440 5442 5444 5446 5448 5450 5452 5455 5457 5459 5461 5464 5466 5468
5409 5408 5408 5407 5407 5407 5407 5406 5405 5404 5404 5403 5402 5401 5401 5400 5399 5398 5397 5396 5396 5396 5394 5393 5392 5392 5392 5391 5389 5388 5387 5386 5386 5386 5386 5386 5386 5385 5384 5384 5384 5384 5384 5384 5384 5385 5385 5386 5387 5388 5389 5390 5391 5392 5394 5395 5397 5399 5401 5402 5405 5406 5409 5411 5414 5416 5419 5421 5424 5427 5429 5432 5434 5436 5438 5440 5442 5444 5446 5449 5451 5453 5456 5458 5460 5462
5406 5405 5404 5404 5404 5403 5403 5402 5401 5400 5400 5400 5399 5398 5397 5396 5395 5395 5394 5392 5392 5391 5391 5389 5389 5388 5388 5387 5386 5385 5383 5382 5382 5382 5382 5382 5382 5381 5380 5380 5380 5380 5380 5380 5380 5380 5381 5381 5382 5383 5384 5385 5386 5387 5389 5390 5391 5393 5395 5397 5399 5401 5403 5406 5408 5410 5413 5415 5418 5421 5423 5425 5428 5430 5432 5435 5436 5439 5441 5443 5445 5447 5450 5452 5454 5456
5402 5401 5401 5400 5400 5400 5399 5398 5398 5397 5396 5396 5396 5395 5394 5392 5392 5391 5390 5389 5388 5388 5387 5386 5385 5385 5384 5384 5383 5382 5380 5379 5379 5379 5379 5379 5378 5377 5376 5376 5376 5376 5376 5376 5376 5376 5377 5377 5378 5379 5380 5381 5381 5383 5384 5385 5387 5388 5390 5392 5394 5396 5398 5400 5402 5405 5407 5410 5412 5415 5417 5419 5422 5424 5426 5429 5431 5433 5436 5438 5440 5442 5444 5446 5448 5451
5399 5399 5398 5397 5397 5396 5396 5395 5395 5394 5394 5393 5392 5391 5391 5390 5389 5388 5387 5386 5385 5384 5383 5383 5382 5381 5381 5380 5380 5379 5377 5376 5376 5376 5376 5375 5375 5374 5373 5372 5372 5372 5373 5373 5372 5372 5373 5373 5374 5375 5376 5376 5377 5378 5379 5381 5382 5384 5386 5387 5389 5391 5393 5395 5397 5400 5402 5404 5406 5409 5411 5414 5416 5418 5421 5423 5426 5428 5431 5433 5435 5437 5439 5441 5443 5445
5395 5395 5395 5394 5393 5393 5392 5392 5391 5391 5390 5389 5389 5388 5387 5386 5386 5385 5384 5383 5382 5381 5380 5379 5379 5378 5378 5376 5376 5375 5374 5373 5372 5372 5372 5372 5372 5371 5370 5369 5369 5369 5369 5369 5369 5369 5369 5369 5370 5371 5371 5372 5373 5374 5375 5376 5378 5379 5381 5383 5385 5386 5389 5391 5393 5395 5397 5399 5401 5404 5407 5410 5412 5414 5416 5418 5421 5423 5426 5428 5430 5432 5434 5436 5438 5440
5391 5391 5391 5390 5389 5389 5388 5388 5388 5387 5386 5386 5385 5384 5383 5383 5382 5381 5380 5380 5379 5378 5377 5376 5376 5375 5374 5373 5373 5372 5371 5370 5369 5369 5369 5369 5369 5368 5367 5366 5366 5366 5366 5366 5366 5365 5365 5366 5366 5367 5367 5368 5369 5370 5371 5372 5374 5375 5377 5378 5380 5382 5384 5386 5388 5391 5392 5395 5397 5400 5403 5406 5408 5411 5412 5415 5417 5419 5421 5423 5425 5427 5430 5431 5434 5436
5388 5387 5387 5387 5386 5385 5384 5384 5385 5384 5383 5382 5382 5381 5380 5380 5379 5378 5377 5376 5375 5375 5374 5373 5372 5372 5371 5370 5370 5369 5368 5366 5366 5366 5366 5365 5365 5365 5364 5363 5363 5363 5363 5363 5362 5362 5362 5362 5363 5363 5364 5364 5365 5366 5367 5368 5370 5371 5373 5374 5376 5378 5380 5382 5384 5386 5388 5391 5393 5396 5399 5402 5405 5407 5409 5411 5413 5415 5417 5419 5421 5423 5425 5427 5429 5431
5385 5384 5384 5384 5383 5381 5381 5381 5381 5380 5380 5379 5378 5377 5377 5376 5375 5374 5374 5373 5372 5371 5371 5370 5369 5369 5368 5367 5366 5366 5365 5364 5363 5362 5362 5362 5362 5362 5361 5360 5360 5360 5360 5360 5359 5358 5358 5359 5359 5360 5360 5361 5361 5362 5363 5365 5366 5367 5369 5370 5372 5374 5376 5378 5380 5382 5384 5387 5389 5392 5395 5398 5401 5403 5405 5407 5409 5411 5412 5414 5416 5418 5420 5422 5424 5426
5381 5381 5380 5380 5379 5378 5377 5377 5377 5376 5376 5376 5375 5374 5373 5373 5371 5371 5370 5370 5369 5368 5367 5367 5366 5366 5365 5364 5363 5362 5361 5361 5360 5360 5359 5359 5359 5359 5358 5357 5357 5357 5356 5356 5356 5355 5355 5356 5356 5356 5357 5357 5358 5359 5360 5361 5362 5363 5365 5366 5368 5370 5372 5374 5376 5378 5381 5383 5385 5388 5391 5393 5396 5399 5401 5402 5404 5406 5407 5409 5411 5413 5415 5417 5419 5421
5378 5377 5377 5376 5375 5375 5374 5373 5373 5373 5372 5372 5371 5370 5370 5369 5368 5367 5367 5366 5366 5365 5365 5364 5363 5363 5362 5361 5361 5360 5359 5358 5357 5356 5356 5356 5356 5356 5355 5355 5354 5354 5354 5353 5353 5352 5352 5352 5353 5353 5353 5354 5355 5355 5356 5357 5358 5360 5361 5363 5364 5366 5368 5370 5372 5375 5377 5379 5381 5384 5386 5389 5391 5394 5396 5398 5400 5401 5403 5405 5407 5409 5410 5412 5414 5416
5375 5374 5374 5373 5372 5371 5371 5370 5370 5369 5369 5368 5368 5367 5366 5366 5365 5364 5364 5363 5363 5362 5361 5361 5360 5360 5359 5358 5358 5357 5356 5355 5354 5354 5353 5353 5352 5352 5352 5351 5351 5351 5351 5351 5350 5350 5349 5350 5350 5350 5350 5351 5351 5352 5353 5354 5355 5356 5357 5359 5361 5362 5364 5366 5368 5371 5373 5376 5378 5380 5383 5385 5387 5389 5391 5393 5395 5397 5399 5401 5402 5404 5406 5407 5409 5411
5372 5371 5371 5370 5369 5368 5368 5367 5366 5366 5366 5365 5365 5364 5363 5362 5362 5361 5361 5361 5360 5359 5358 5358 5357 5357 5356 5356 5355 5354 5354 5353 5352 5351 5351 5350 5350 5349 5349 5349 5348 5348 5348 5348 5348 5347 5347 5347 5347 5347 5347 5347 5348 5349 5349 5350 5351 5352 5354 5355 5357 5359 5360 5362 5365 5367 5370 5372 5375 5377 5379 5381 5383 5385 5386 5389 5391 5392 5395 5396 5398 5400 5401 5403 5405 5406
5370 5369 5368 5367 5366 5366 5365 5364 5364 5363 5363 5362 5362 5361 5361 5360 5359 5359 5358 5358 5356 5356 5355 5355 5355 5354 5353 5353 5352 5351 5351 5351 5350 5349 5348 5347 5347 5346 5346 5346 5346 5346 5346 5346 5346 5345 5345 5345 5344 5344 5344 5344 5345 5345 5346 5347 5348 5349 5350 5352 5353 5355 5357 5359 5361 5364 5366 5369 5371 5373 5375 5377 5379 5381 5382 5384 5386 5388 5390 5392 5394 5395 5397 5398 5400 5401
5367 5366 5365 5364 5363 5362 5362 5361 5361 5360 5360 5360 5359 5359 5358 5357 5356 5356 5355 5354 5354 5353 5352 5352 5352 5351 5351 5350 5349 5349 5348 5348 5347 5346 5345 5345 5344 5344 5343 5343 5343 5343 5343 5343 5343 5343 5342 5342 5342 5342 5341 5341 5342 5342 5343 5344 5345 5346 5347 5348 5350 5351 5353 5356 5358 5360 5363 5365 5367 5369 5371 5373 5375 5376 5378 5380 5382 5384 5386 5387 5389 5391 5392 5393 5394 5396
5364 5363 5362 5361 5360 5359 5358 5358 5357 5357 5357 5357 5356 5356 5355 5354 5353 5353 5352 5352 5351 5350 5350 5349 5349 5348 5347 5347 5346 5346 5345 5345 5344 5342 5342 5342 5341 5341 5341 5341 5340 5340 5340 5340 5340 5341 5340 5340 5340 5339 5339 5339 5339 5340 5340 5341 5342 5343 5344 5345 5346 5348 5350 5352 5354 5357 5359 5361 5363 5365 5367 5369 5371 5373 5374 5376 5378 5380 5381 5383 5384 5386 5386 5388 5389 5391
5361 5360 5359 5358 5357 5356 5355 5354 5354 5354 5353 5353 5353 5352 5352 5351 5351 5350 5350 5350 5349 5347 5347 5346 5346 5345 5344 5344 5343 5343 5342 5341 5340 5339 5339 5339 5339 5339 5338 5338 5338 5337 5337 5337 5337 5338 5338 5338 5337 5337 5337 5337 5337 5337 5337 5338 5339 5340 5341 5342 5343 5345 5347 5349 5351 5353 5355 5357 5359 5361 5363 5365 5367 5369 5370 5372 5374 5376 5377 5379 5380 5381 5381 5383 5384 5386
5357 5357 5356 5355 5354 5353 5352 5351 5351 5351 5350 5349 5349 5348 5348 5348 5347 5347 5347 5347 5346 5346 5345 5344 5344 5343 5342 5341 5341 5340 5340 5338 5337 5336 5336 5336 5336 5336 5336 5335 5335 5335 5335 5335 5335 5335 5336 5336 5335 5335 5335 5335 5335 5335 5335 5336 5336 5337 5338 5339 5341 5342 5343 5345 5347 5349 5351 5354 5356 5357 5360 5361 5363 5365 5366 5368 5370 5371 5372 5374 5375 5376 5377 5378 5381 5383
5354 5353 5353 5352 5351 5350 5349 5349 5348 5347 5346 5346 5345 5345 5344 5344 5343 5343 5343 5343 5343 5343 5342 5342 5341 5340 5340 5339 5338 5337 5336 5336 5335 5334 5333 5333 5333 5333 5333 5332 5332 5332 5332 5332 5332 5332 5333 5333 5333 5333 5333 5332 5332 5333 5333 5333 5334 5334 5335 5336 5338 5339 5341 5342 5344 5346 5348 5350 5352 5354 5356 5357 5359 5361 5362 5364 5365 5367 5368 5369 5370 5371 5373 5375 5377 5379
5351 5350 5349 5349 5348 5347 5346 5346 5345 5344 5343 5343 5342 5341 5341 5340 5340 5339 5339 5340 5340 5340 5340 5339 5338 5338 5337 5336 5335 5335 5334 5333 5332 5331 5331 5331 5331 5331 5330 5330 5329 5329 5329 5329 5329 5329 5330 5330 5330 5330 5331 5331 5331 5331 5331 5331 5331 5332 5333 5334 5335 5336 5337 5339 5341 5343 5345 5346 5348 5350 5352 5354 5356 5357 5359 5360 5361 5362 5363 5365 5366 5368 5370 5371 5373 5375
5347 5346 5346 5346 5345 5344 5343 5343 5342 5341 5341 5340 5339 5338 5337 5337 5336 5336 5336 5336 5336 5336 5336 5336 5336 5335 5334 5333 5333 5332 5331 5331 5329 5328 5328 5329 5328 5328 5327 5327 5326 5326 5326 5326 5326 5327 5327 5327 5327 5328 5328 5328 5328 5328 5328 5328 5329 5329 5330 5331 5332 5333 5335 5336 5338 5339 5341 5343 5345 5346 5348 5350 5351 5353 5355 5356 5358 5359 5360 5361 5362 5364 5366 5367 5368 5370
5343 5343 5343 5342 5342 5341 5340 5340 5339 5338 5337 5336 5336 5335 5334 5334 5333 5333 5332 5332 5332 5332 5332 5332 5332 5332 5331 5331 5330 5329 5329 5328 5327 5326 5326 5326 5326 5325 5325 5324 5324 5324 5324 5324 5324 5324 5324 5325 5325 5325 5326 5326 5326 5326 5326 5326 5326 5327 5327 5328 5329 5330 5331 5333 5334 5336 5338 5339 5341 5342 5344 5346 5347 5349 5350 5352 5354 5355 5356 5357 5359 5360 5361 5362 5363 5365
5339 5339 5339 5339 5338 5338 5337 5336 5336 5335 5334 5333 5332 5332 5331 5331 5330 5330 5329 5329 5329 5329 5329 5329 5329 5329 5328 5328 5327 5327 5326 5326 5325 5324 5324 5323 5323 5323 5322 5322 5321 5321 5321 5321 5321 5321 5321 5322 5322 5322 5323 5323 5324 5324 5324 5324 5324 5324 5325 5326 5326 5327 5328 5330 5331 5332 5334 5336 5337 5339 5340 5341 5343 5344 5346 5347 5349 5351 5352 5353 5354 5356 5356 5358 5359 5361
5336 5336 5335 5335 5334 5334 5334 5333 5332 5331 5331 5330 5330 5329 5328 5327 5327 5326 5326 5326 5326 5325 5325 5325 5325 5325 5325 5325 5325 5324 5324 5323 5322 5322 5321 5321 5321 5320 5320 5319 5319 5319 5318 5318 5318 5319 5319 5319 5320 5320 5320 5321 5321 5321 5321 5322 5322 5322 5322 5323 5324 5324 5325 5326 5327 5329 5330 5331 5333 5334 5336 5337 5339 5340 5341 5343 5344 5346 5347 5348 5350 5351 5352 5353 5355 5356
5332 5332 5331 5331 5331 5330 5330 5329 5329 5328 5328 5327 5326 5326 5325 5324 5324 5323 5323 5322 5322 5322 5321 5321 5322 5322 5322 5322 5321 5321 5321 5320 5320 5319 5319 5318 5318 5318 5318 5317 5317 5316 5316 5316 5316 5316 5316 5317 5317 5317 5318 5318 5318 5319 5319 5320 5320 5320 5320 5321 5321 5321 5322 5323 5324 5325 5326 5327 5329 5330 5331 5333 5334 5336 5337 5338 5340 5341 5342 5344 5345 5346 5348 5349 5351 5352
5328 5328 5327 5327 5327 5326 5326 5326 5325 5325 5324 5324 5323 5322 5322 5321 5321 5320 5319 5319 5318 5318 5318 5318 5318 5318 5318 5318 5318 5318 5318 5317 5317 5316 5316 5316 5316 5315 5315 5315 5314 5314 5314 5314 5314 5314 5314 5314 5314 5315 5315 5315 5316 5316 5316 5317 5317 5318 5318 5318 5319 5319 5320 5320 5321 5322 5323 5324 5325 5326 5327 5328 5330 5331 5332 5334 5335 5336 5338 5340 5341 5342 5344 5345 5346 5348
5324 5324 5323 5323 5323 5323 5322 5322 5322 5321 5321 5320 5320 5319 5319 5318 5317 5317 5316 5316 5315 5315 5314 5314 5314 5315 5315 5315 5315 5315 5315 5314 5314 5313 5313 5313 5312 5312 5312 5312 5312 5312 5311 5311 5311 5311 5311 5311 5311 5312 5312 5312 5313 5313 5313 5314 5315 5315 5316 5316 5316 5316 5317 5317 5318 5319 5320 5321 5321 5322 5323 5325 5326 5327 5328 5329 5331 5332 5334 5335 5336 5338 5339 5341 5342 5344
5320 5319 5319 5319 5319 5319 5319 5318 5318 5318 5317 5317 5316 5316 5316 5315 5314 5314 5313 5312 5312 5311 5311 5311 5311 5311 5311 5312 5312 5312 5312 5311 5311 5311 5310 5310 5310 5310 5310 5310 5309 5309 5309 5309 5309 5309 5309 5308 5309 5309 5309 5310 5310 5310 5311 5311 5312 5312 5313 5313 5313 5314 5314 5315 5315 5316 5316 5317 5318 5319 5320 5321 5322 5323 5324 5325 5326 5328 5329 5331 5332 5333 5335 5336 5337 5339
5316 5315 5315 5314 5314 5314 5314 5314 5314 5314 5313 5313 5313 5313 5312 5312 5311 5311 5310 5309 5309 5308 5308 5308 5307 5308 5308 5308 5309 5309 5309 5308 5308 5308 5307 5307 5307 5307 5306 5306 5306 5306 5306 5306 5306 5306 5306 5306 5306 5306 5306 5306 5307 5307 5308 5308 5309 5309 5310 5310 5311 5311 5311 5312 5312 5313 5314 5314 5315 5316 5316 5317 5318 5319 5320 5321 5322 5324 5325 5326 5327 5329 5330 5332 5333 5335
5311 5311 5311 5310 5310 5309 5309 5309 5309 5309 5309 5309 5309 5309 5309 5308 5307 5307 5306 5306 5305 5305 5305 5304 5304 5304 5304 5305 5306 5306 5306 5305 5305 5305 5304 5304 5304 5304 5304 5303 5303 5303 5303 5303 5303 5303 5303 5303 5303 5303 5303 5303 5303 5304 5304 5305 5305 5306 5306 5307 5307 5308 5308 5309 5309 5310 5310 5311 5312 5312 5313 5314 5315 5316 5316 5317 5319 5320 5321 5322 5323 5325 5326 5328 5329 5331
5307 5307 5306 5306 5306 5305 5305 5305 5305 5305 5305 5305 5305 5305 5305 5304 5304 5303 5303 5302 5302 5302 5301 5301 5301 5301 5301 5301 5302 5302 5302 5302 5302 5301 5301 5301 5301 5301 5300 5300 5300 5300 5300 5300 5300 5300 5300 5300 5300 5300 5300 5300 5300 5300 5301 5301 5301 5302 5303 5303 5304 5304 5305 5305 5306 5307 5307 5308 5308 5309 5310 5310 5311 5312 5313 5314 5315 5316 5317 5318 5320 5321 5322 5324 5325 5326
5303 5303 5302 5301 5301 5301 5300 5300 5300 5301 5301 5301 5301 5301 5301 5301 5300 5300 5299 5299 5298 5298 5298 5298 5297 5297 5297 5298 5298 5298 5299 5299 5299 5298 5298 5297 5297 5297 5297 5297 5296 5296 5296 5296 5296 5296 5296 5296 5296 5296 5296 5296 5296 5297 5297 5297 5297 5298 5298 5299 5300 5300 5301 5302 5302 5303 5304 5304 5305 5306 5306 5307 5308 5309 5310 5311 5312 5313 5314 5315 5316 5317 5318 5320 5321 5322
5299 5298 5297 5297 5296 5296 5296 5296 5296 5296 5296 5296 5296 5296 5297 5296 5296 5296 5296 5295 5295 5295 5294 5294 5294 5294 5294 5294 5295 5295 5295 5295 5296 5295 5295 5295 5294 5294 5293 5293 5293 5293 5293 5293 5293 5293 5293 5293 5293 5293 5293 5293 5293 5293 5293 5293 5293 5293 5294 5295 5295 5296 5297 5298 5299 5299 5300 5301 5301 5301 5302 5303 5304 5305 5306 5307 5308 5310 5310 5311 5312 5313 5315 5316 5317 5318
5294 5293 5293 5292 5292 5291 5291 5291 5291 5291 5291 5291 5292 5292 5292 5293 5293 5292 5292 5292 5291 5291 5291 5291 5291 5291 5291 5291 5291 5291 5291 5291 5292 5292 5292 5292 5291 5291 5290 5290 5289 5289 5289 5289 5289 5289 5289 5289 5289 5289 5289 5289 5289 5289 5289 5289 5289 5289 5289 5290 5290 5291 5292 5293 5294 5295 5296 5296 5297 5297 5298 5299 5301 5301 5303 5304 5305 5306 5307 5308 5309 5310 5311 5312 5313 5315
5289 5289 5288 5287 5287 5286 5286 5286 5286 5286 5287 5287 5288 5288 5288 5289 5289 5289 5288 5288 5288 5288 5287 5287 5287 5287 5287 5287 5287 5288 5288 5288 5288 5288 5289 5289 5288 5288 5287 5286 5286 5285 5285 5285 5285 5285 5285 5285 5285 5285 5285 5285 5285 5285 5284 5284 5284 5284 5284 5285 5286 5286 5287 5288 5290 5291 5291 5292 5293 5293 5294 5296 5296 5298 5299 5300 5301 5302 5304 5305 5306 5306 5307 5308 5310 5311
5284 5283 5283 5282 5282 5281 5281 5281 5281 5281 5282 5282 5283 5284 5284 5285 5285 5285 5285 5285 5284 5284 5284 5284 5284 5284 5284 5284 5284 5284 5284 5284 5285 5285 5285 5285 5285 5285 5284 5283 5283 5282 5282 5281 5281 5281 5281 5281 5281 5281 5281 5281 5280 5280 5280 5280 5280 5280 5280 5280 5281 5282 5282 5284 5285 5286 5287 5288 5289 5289 5290 5291 5292 5294 5295 5296 5297 5299 5300 5301 5302 5303 5304 5305 5306 5307
5279 5278 5278 5277 5277 5276 5276 5276 5276 5277 5277 5278 5279 5279 5280 5281 5281 5281 5281 5281 5281 5281 5281 5280 5280 5280 5280 5280 5281 5281 5281 5281 5281 5281 5281 5281 5281 5281 5281 5280 5280 5279 5278 5278 5278 5278 5278 5278 5277 5277 5277 5276 5276 5275 5275 5275 5275 5275 5276 5276 5277 5277 5278 5279 5280 5282 5283 5284 5285 5286 5286 5287 5289 5290 5291 5292 5293 5295 5296 5297 5299 5300 5300 5301 5302 5303
5274 5273 5273 5272 5272 5271 5271 5271 5271 5272 5272 5273 5274 5275 5275 5276 5277 5277 5278 5278 5277 5277 5277 5277 5277 5277 5277 5277 5277 5277 5277 5277 5277 5277 5277 5278 5278 5277 5277 5276 5276 5276 5275 5275 5275 5274 5274 5274 5274 5274 5273 5272 5271 5271 5270 5270 5271 5271 5271 5272 5273 5274 5274 5275 5276 5277 5278 5279 5280 5281 5282 5284 5285 5286 5287 5288 5289 5291 5292 5293 5294 5296 5296 5297 5298 5299